Regional Weather Roundup
Issued by NWS Sioux Falls, SD

Home | Current Version | Previous Version | Text Only | Print | Product List | Glossary Off
Versions: 1 2 3 4 5 6 7 8 9 10 11 12 13 14 15 16 17 18 19 20 21 22 23 24 25 26 27 28 29 30 31 32 33 34 35 36 37 38 39 40 41 42 43 44 45 46 47 48 49 50

000
ASUS43 KFSD 260410
RWRFSD

WEATHER ROUNDUP FOR SE SOUTH DAKOTA/SW MINNESOTA/NW IOWA
NATIONAL WEATHER SERVICE SIOUX FALLS SD
1000 PM CST SUN JAN 25 2015

NOTE: "FAIR" INDICATES FEW OR NO CLOUDS BELOW 12,000 FEET WITH NO
SIGNIFICANT WEATHER AND OR OBSTRUCTIONS TO VISIBILITY.


SDZ038>040-050-052>070-260500-
SOUTHEAST SOUTH DAKOTA

CITY           SKY/WX    TMP DP  RH WIND       PRES   REMARKS
CHAMBERLAIN    MOCLDY    31  29  90 SW6       29.94F WCI  25
HURON          PTCLDY    32  30  92 S9        29.95F WCI  24
MADISON        CLOUDY    32  32 100 SW7       29.97S WCI  26
MITCHELL       PTCLDY    32  31  96 S5        29.99S WCI  27
SIOUX FALLS    CLOUDY    32  30  92 CALM      29.99F
WINNER         FAIR      39  29  67 S9        29.94F
YANKTON        PTCLDY    32  30  93 S3        30.02F
$$

MNZ071-072-080-081-089-090-097-098-260500-
SOUTHWEST MINNESOTA

CITY           SKY/WX    TMP DP  RH WIND       PRES   REMARKS
FAIRMONT       CLOUDY    28  21  74 S5        30.01F WCI  23
JACKSON        CLOUDY    30  28  93 S7        30.00F WCI  23
LUVERNE        CLOUDY    34  32  93 SW5       29.99F WCI  30
MARSHALL       CLOUDY    28  25  86 CALM      29.99F
MONTEVIDEO     CLOUDY    28  28 100 SW7       29.98S WCI  21
PIPESTONE      CLOUDY    32  30  93 W7        29.96S WCI  26
REDWOOD FALLS  CLOUDY    30  26  85 S9        29.98F WCI  22
TRACY          CLOUDY    30  28  93 S6        29.97F WCI  24
WINDOM         CLOUDY    28  27  93 CALM      29.98F
WORTHINGTON    CLOUDY    30  28  93 S8        29.99S WCI  23
$$

IAZ001>003-012>014-020>022-031-032-NEZ013-014-SDZ071-260500-
NORTHWEST IOWA

CITY           SKY/WX    TMP DP  RH WIND       PRES   REMARKS
CHEROKEE       CLOUDY    32  31  96 S5        30.02F WCI  27
DENISON        CLOUDY    32  32 100 CALM      30.04S
ESTHERVILLE    CLOUDY    28  25  88 S8        30.01F WCI  20
LE MARS        CLOUDY    32  32 100 S5        30.02F WCI  27
ORANGE CITY    CLOUDY    34  30  86 CALM      30.01F
SHELDON        CLOUDY    32  32 100 SW5       30.00F WCI  27
SIOUX CITY     CLOUDY    34  31  88 CALM      30.04F
SPENCER        CLOUDY    33  30  88 S5        30.01F WCI  29
STORM LAKE     CLOUDY    30  30 100 S8        30.02F WCI  23
$$

ABBREVIATIONS USED IN REMARKS
   TC - TEMPERATURE IN CELSIUS
  WCI - WIND CHILL INDEX
   HX - HEAT INDEX
  VSB - VISIBILITY




USA.gov is the U.S. government's official web portal to all federal, state and local government web resources and services.